Location: Follega
(52.8850°N, 5.7362°E)
Time: 20:33:22
(UTC+00:00)

STARLINK-1218 - Pass Details

Date: 01 June 2020
Orbit: 549 x 550 km, 53.0° (Epoch: 04 July)

Event Time Altitude Azimuth Distance (km) Brightness Sun altitude
Rises 21:20:15 0° 272° (W) 2,720 7.7 -9.4°
Reaches altitude 10° 21:22:29 10° 273° (W) 1,826 6.8 -9.6°
Maximum altitude 21:26:38 87° 0° (N) 557 3.6 -9.9°
Drops below altitude 10° 21:30:48 10° 93° (E) 1,826 6.0 -10.2°
Sets 21:33:02 0° 94° (E) 2,720 6.8 -10.4°
